• Processing (Info)

  • MPEC 2008-W06 : 2005 VA123, 2007 TG422, 2007 XV50, 2008 CS190, 2008 CT190

    The following Minor Planet Electronic Circular may be linked-to from your own Web pages, but must not otherwise be redistributed electronically.

    A form allowing access to any MPEC is at the bottom of this page.


    Read MPEC 2008-W05 Read MPEC 2008-W07


    M.P.E.C. 2008-W06                                Issued 2008 Nov. 18, 00:02 UT
    
         The Minor Planet Electronic Circulars contain information on unusual
             minor planets and routine data on comets.  They are published
       on behalf of Commission 20 of the International Astronomical Union by the
              Minor Planet Center, Smithsonian Astrophysical Observatory,
                              Cambridge, MA 02138, U.S.A.
    
                 Prepared using the Tamkin Foundation Computer Network
    
                                  MPC@CFA.HARVARD.EDU
              URL http://www.cfa.harvard.edu/iau/mpc.html  ISSN 1523-6714
    
               2005 VA123, 2007 TG422, 2007 XV50, 2008 CS190, 2008 CT190
    
           Revision to MPEC 2006-C53, 2008-C75, 2008-D39, 2008-H50, 2008-J72
    
    Additional Observations:
         K05VC3A  C2008 10 27.47806 04 34 08.17 +22 44 47.2                 EW006695
         K05VC3A  C2008 10 27.51305 04 34 08.00 +22 44 47.1                 EW006695
         K05VC3A  C2008 10 29.47624 04 33 58.20 +22 44 29.2                 EW006695
         K05VC3A  C2008 10 29.50017 04 33 58.06 +22 44 29.0                 EW006695
         K07Tg2G  C2008 10 26.45436 03 18 37.65 +00 05 20.5                 EW006695
         K07Tg2G  C2008 10 26.47831 03 18 37.54 +00 05 20.0                 EW006695
         K07Tg2G  C2008 10 27.38650 03 18 33.13 +00 04 58.0                 EW006695
         K07Tg2G  C2008 10 27.43178 03 18 32.89 +00 04 56.8                 EW006695
         K07X50V  C2008 10 25.48037 04 14 34.51 +26 30 24.7                 EW006695
         K07X50V  C2008 10 25.49934 04 14 34.43 +26 30 24.6                 EW006695
         K07X50V  C2008 10 27.46652 04 14 26.12 +26 30 20.7                 EW006695
         K07X50V  C2008 10 27.49032 04 14 26.03 +26 30 20.8                 EW006695
         K08CJ0S  C2008 10 28.42754 10 04 19.22 +11 33 14.6                 EW006695
         K08CJ0S  C2008 10 28.46587 10 04 19.34 +11 33 13.5                 EW006695
         K08CJ0S  C2008 10 29.41685 10 04 22.48 +11 32 51.3                 EW006695
         K08CJ0S  C2008 10 29.44817 10 04 22.57 +11 32 50.3                 EW006695
         K08CJ0T  C2008 10 25.45330 10 06 19.32 +37 41 32.0                 EW006695
         K08CJ0T  C2008 10 25.48941 10 06 19.50 +37 41 33.1                 EW006695
         K08CJ0T  C2008 10 27.40825 10 06 29.31 +37 42 29.7                 EW006695
         K08CJ0T  C2008 10 27.44105 10 06 29.46 +37 42 30.4                 EW006695
    
    Observer details:
    695 Kitt Peak.  Observers W. Romanishin, E. Cooper.  Measurer J. W. Parker.
        2.1-m reflector + CCD.
    
    Orbital elements:
    2005 VA123
    Epoch 2008 Nov. 30.0 TT = JDT 2454800.5                 MPC
    M  46.95344              (2000.0)            P               Q
    n   0.00397577     Peri.  316.82170     +0.99805798     +0.05995519
    a  39.4628525      Node    39.75041     -0.04749548     +0.90799393
    e   0.2526734      Incl.    1.51457     -0.04030456     +0.41467144
    P 248              H    6.9           G   0.15           U   3
    Residuals in seconds of arc
    K05B2  695  0.0   0.0     K05C2  695  0.2+  0.0     K08AR  695  0.0   0.0
    K05B2  695  0.1-  0.1+    K05CU  688  0.1-  0.5-    K08AR  695  0.1+  0.2+
    K05B2  695  0.0   0.1+    K05CU  688  0.1-  0.4+    K08AT  695  0.0   0.1-
    K05C2  695  0.1+  0.0     K062P  688  0.3+  0.0     K08AT  695  0.2-  0.1-
    K05C2  695  0.1+  0.0     K062P  688  0.2-  0.0
    
    2007 TG422
    Epoch 2008 Nov. 30.0 TT = JDT 2454800.5                 MPC
    M   0.10339              (2000.0)            P               Q
    n   0.00008467     Peri.  285.23222     +0.74085024     -0.60387851
    a 513.6226144      Node   112.83127     +0.67016202     +0.69390343
    e   0.9307980      Incl.   18.60599     -0.04498656     +0.39221011
    P 11640            H    6.1           G   0.15           U   4
    Residuals in seconds of arc
    K0795  705  0.0   0.1+    K07AC  705  0.0   0.0     K07BC  705  0.1-  0.0
    K0795  705  0.1+  0.1+    K07AC  705  0.1+  0.0     K07BC  705  0.0   0.2-
    K079F  705  0.2-  0.2+    K07AE  705  0.2-  0.1+    K07BH  705  0.0   0.0
    K079F  705  0.1-  0.1+    K07AE  705  0.1+  0.1+    K07BH  705  0.1+  0.2-
    K079M  705  0.0   0.0     K07B2  705  0.0   0.0     K07BJ  705  0.0   0.1-
    K079M  705  0.2-  0.1+    K07B2  705  0.2+  0.1-    K07BJ  705  0.0   0.1-
    K07A3  705  0.1+  0.0     K07B5  705  0.1-  0.0     K08AQ  695  0.0   0.0
    K07A3  705  0.0   0.1-    K07B5  705  0.2+  0.3-    K08AQ  695  0.1+  0.1+
    K07A9  705  0.2+  0.1+    K07B8  705  0.1-  0.3+    K08AR  695  0.1+  0.1+
    K07A9  705  0.1-  0.1+    K07B8  705  0.2+  0.2-    K08AR  695  0.2-  0.0
    
    2007 XV50
    Eccentricity assumed
    Epoch 2008 Nov. 30.0 TT = JDT 2454800.5                 MPC
    M 100.72729              (2000.0)            P               Q
    n   0.00317961     Peri.  267.83204     +0.71842392     +0.62121712
    a  45.8022247      Node    53.58745     -0.37472277     +0.72469967
    e   0.0428102      Incl.   22.88663     -0.58604601     +0.29816050
    P 310              H    5.0           G   0.15
    Residuals in seconds of arc
    K07CD  675  0.2-  0.0     K07CU  675  0.6+  0.5-    K0821  675  0.0   0.1-
    K07CD  675  0.1+  0.2+    K07CU  675  0.4+  0.3-    K08AP  695  0.2+  0.1+
    K07CE  675  0.8-  0.8+    K081A  675  0.1+  0.4-    K08AP  695  0.2+  0.0
    K07CE  675  0.1+  0.7+    K081A  675  0.1-  0.3-    K08AR  695  0.3-  0.1-
    K07CU  675  0.1-  0.3-    K0821  675  0.1-  0.1+    K08AR  695  0.1-  0.1+
    
    2008 CS190
    Epoch 2008 Nov. 30.0 TT = JDT 2454800.5                 MPC
    M  18.05989              (2000.0)            P               Q
    n   0.00361490     Peri.  156.70119     -0.55820541     -0.81583366
    a  42.0473200      Node   326.65440     +0.71143685     -0.37694991
    e   0.1486257      Incl.   15.95181     +0.42692426     -0.43854783
    P 273              H    6.5           G   0.15           U   6
    Residuals in seconds of arc
    K082B  675  0.2-  0.9+    K083P  675  0.4-  0.4+    K0867  807  0.4+  0.0
    K082B  675  0.5-  0.9+    K083P  675  0.4-  0.1+    K08AS  695  0.1+  0.1+
    K082C  675  0.3-  0.7+    K083Q  675  0.3-  0.2+    K08AS  695  0.0   0.1-
    K082C  675  0.7-  0.4-    K084Q  675  0.0   0.2-    K08AT  695  0.0   0.1+
    K082R  688  1.0+  1.2-    K0855  695  0.5-  0.1+    K08AT  695  0.2-  0.2-
    K082R  688  0.9+  0.8-    K0855  695  0.5-  0.1+
    K082S  688  1.1+  1.1-    K0866  807  0.5+  0.2+
    
    2008 CT190
    Epoch 2008 Nov. 30.0 TT = JDT 2454800.5                 MPC
    M 357.01724              (2000.0)            P               Q
    n   0.00258851     Peri.   47.88789     -0.71993343     -0.33072702
    a  52.5334292      Node   103.73496     +0.28655960     -0.94237245
    e   0.3398590      Incl.   38.91292     +0.63212298     +0.05053516
    P 381              H    6.2           G   0.15           U   6
    Residuals in seconds of arc
    K0829  675  0.3-  0.6+    K083C  675  0.4-  0.4+    K08AP  695  0.1+  0.1+
    K0829  675  0.5-  0.1-    K083C  675  0.6-  0.2+    K08AP  695  0.0   0.1+
    K082A  675  0.3-  0.4+    K083C  675  0.5-  0.4+    K08AR  695  0.0   0.1+
    K082A  675  0.4+  0.2+    K0842  675  0.3+  0.4+    K08AR  695  0.1-  0.2-
    K082R  688  1.0+  0.9-    K0853  675  0.2+  0.3-
    K082R  688  0.9+  1.1-    K0854  675  0.2-  0.2-
    
    Ephemerides:
    2005 VA123               a,e,i = 39.46, 0.25, 2                  q = 29.492
    Date    TT    R. A. (2000) Decl.     Delta      r     Elong.  Phase     V
    2008 11 10    04 32.92   +22 42.5   33.457   34.376   157.8     0.6    22.3
    2008 11 20    04 31.92   +22 40.6   33.415   34.383   168.1     0.3    22.3
    2008 11 30    04 30.87   +22 38.5   33.404   34.389   178.3     0.0    22.2
    2008 12 10    04 29.81   +22 36.3   33.423   34.396   171.1     0.3    22.3
    2008 12 20    04 28.80   +22 34.1   33.473   34.403   160.7     0.5    22.3
    2008 12 30    04 27.86   +22 32.1   33.553   34.410   150.3     0.8    22.3
    2009 01 09    04 27.04   +22 30.2   33.659   34.417   139.9     1.1    22.4
    2009 01 19    04 26.37   +22 28.6   33.789   34.424   129.5     1.3    22.4
    2009 01 29    04 25.87   +22 27.4   33.938   34.431   119.3     1.4    22.4
    2009 02 08    04 25.57   +22 26.6   34.103   34.437   109.0     1.6    22.5
    2009 02 18    04 25.47   +22 26.2   34.277   34.444    98.9     1.6    22.5
    2009 02 28    04 25.59   +22 26.3   34.456   34.451    88.9     1.6    22.5
    2009 03 10    04 25.92   +22 26.9   34.635   34.458    78.9     1.6    22.5
    2009 03 20    04 26.46   +22 27.9   34.808   34.465    69.1     1.5    22.5
    2009 03 30    04 27.18   +22 29.4   34.970   34.472    59.4     1.4    22.5
    2009 04 09    04 28.08   +22 31.2   35.118   34.479    49.7     1.3    22.5
    2009 04 19    04 29.12   +22 33.4   35.247   34.485    40.2     1.1    22.5
    2009 04 29    04 30.29   +22 35.8   35.354   34.492    30.7     0.9    22.5
    
